DW8253 Weather Reports


time (UTC)temp
C
wind
direction
speed
KPH
gust
KPH
rain 1hr
cm
rain 24hr
cm
rain mn
cm
humidity
%
barometer
mb
20260505195526 12 82 24.1 37.0 0.00 0.74 0.23 75 867.0
20260505194526 12 87 20.9 30.6 0.00 0.74 0.23 76 867.0
20260505193526 12 81 24.1 35.4 0.03 0.74 0.23 76 867.0
20260505192527 11 85 25.7 35.4 0.03 0.74 0.23 77 866.9
20260505191527 11 73 22.5 33.8 0.00 0.71 0.23 78 866.9
20260505191014 11 72 24.1 33.8 0.00 0.71 0.23 78 866.9
20260505185525 11 80 24.1 35.4 0.00 0.71 0.23 79 866.8
20260505184526 11 68 20.9 30.6 0.00 0.71 0.23 79 866.8
20260505183526 11 38 20.9 30.6 0.00 0.71 0.20 80 866.8
20260505182842 10 41 19.3 29.0 0.00 0.71 0.20 86 866.7
20260505182525 10 64 17.7 29.0 0.00 0.71 0.20 82 866.8
20260505181601 10 56 20.9 30.6 0.00 0.71 0.20 84 866.7
20260505175522 11 47 19.3 35.4 0.00 0.71 0.20 85 866.8
20260505174522 11 43 20.9 35.4 0.00 0.71 0.20 85 866.8
20260505174448 11 44 17.7 24.1 0.03 0.71 0.20 84 866.8
20260505172523 11 51 20.9 33.8 0.03 0.71 0.20 83 866.8
20260505171523 11 58 19.3 30.6 0.05 0.71 0.20 82 866.8
20260505170523 11 48 17.7 24.1 0.05 0.71 0.20 81 866.9
20260505165521 11 49 19.3 25.7 0.05 0.71 0.20 79 866.9
20260505164521 11 49 22.5 33.8 0.05 0.71 0.20 80 866.9
20260505163521 12 36 25.7 40.2 0.05 0.69 0.18 78 866.9
20260505162522 12 60 25.7 40.2 0.05 0.66 0.18 78 866.9
20260505161523 12 56 20.9 27.4 0.05 0.66 0.15 76 867.0
20260505160522 12 40 20.9 32.2 0.05 0.66 0.15 77 867.0
20260505152518 13 47 20.9 37.0 0.05 0.64 0.13 71 867.1
20260505151520 13 51 20.9 33.8 0.05 0.61 0.10 72 867.1
20260505150520 13 50 20.9 32.2 0.05 0.61 0.10 73 867.1
20260505140518 13 54 22.5 32.2 0.05 0.56 0.05 77 867.2
20260505124511 17 39 22.5 35.4 0.00 0.51 0.00 85 867.6
20260505123511 17 54 20.9 33.8 0.00 0.51 0.00 91 867.7
20260505122511 17 35 16.1 25.7 0.00 0.51 0.00 92 867.7
20260505121512 17 43 14.5 20.9 0.00 0.51 0.00 93 867.7
20260505120511 16 21 12.9 22.5 0.00 0.51 0.00 92 867.7
20260505115511 16 0 9.7 14.5 0.00 0.51 0.00 88 867.5
20260505114510 15 34 9.7 16.1 0.00 0.51 0.00 79 867.4
20260505113505 15 18 14.5 20.9 0.00 0.51 0.00 70 867.4
20260505112506 15 2 9.7 14.5 0.00 0.51 0.00 75 867.4
20260505111505 16 337 9.7 12.9 0.00 0.51 0.00 77 867.5
20260505110505 16 355 8.0 12.9 0.00 0.51 0.00 76 867.5
20260505110419 16 318 6.4 11.3 0.00 0.51 0.00 77 867.5
20260505101501 18 237 11.3 14.5 0.00 0.51 0.00 78 867.8
20260505100501 18 241 9.7 12.9 0.00 0.51 0.00 78 867.8
20260505095501 18 231 9.7 12.9 0.00 0.51 0.00 78 867.8
20260505094501 18 249 6.4 11.3 0.00 0.51 0.00 76 867.9
20260505093455 18 223 9.7 16.1 0.00 0.51 0.00 75 867.9
20260505092456 19 221 11.3 16.1 0.00 0.51 0.00 74 867.9
20260505091456 20 220 9.7 14.5 0.00 0.51 0.00 72 868.0
20260505090456 20 204 11.3 16.1 0.00 0.51 0.00 71 868.1
20260505085449 20 209 9.7 14.5 0.00 0.51 0.00 71 868.1
20260505084450 20 218 8.0 12.9 0.00 0.51 0.00 71 868.1
20260505083449 20 221 11.3 16.1 0.00 0.51 0.00 70 868.2
20260505082444 21 232 11.3 19.3 0.00 0.51 0.00 71 868.2
20260505081442 21 222 14.5 20.9 0.00 0.51 0.00 70 868.2
20260505080442 21 232 12.9 19.3 0.00 0.51 0.00 71 868.2
20260505075927 21 238 14.5 20.9 0.00 0.51 0.00 70 868.3
20260505074442 21 230 11.3 17.7 0.00 0.51 0.00 69 868.3
20260505073442 22 232 12.9 19.3 0.00 0.51 0.00 69 868.3
20260505072438 22 233 14.5 20.9 0.00 0.51 0.00 67 868.5
20260505071438 22 251 14.5 24.1 0.00 0.51 0.00 67 868.5
20260505070439 22 228 14.5 20.9 0.00 0.51 0.00 66 868.5
20260505065439 22 237 14.5 22.5 0.00 0.51 0.00 67 868.6
20260505064439 22 228 14.5 22.5 0.00 0.51 0.00 66 868.6
20260505063438 22 219 14.5 22.5 0.00 0.51 0.00 68 868.5
20260505062914 22 230 12.9 19.3 0.00 0.51 0.00 68 868.5
20260505061433 22 221 12.9 20.9 0.00 0.51 0.00 69 868.5
20260505060434 22 227 12.9 19.3 0.00 0.51 0.00 69 868.5
20260505055908 22 221 14.5 20.9 0.00 0.51 0.00 69 868.6
20260505054434 22 221 12.9 20.9 0.00 0.51 0.00 69 868.6
20260505053432 23 216 16.1 24.1 0.00 0.51 0.00 68 868.6
20260505052433 23 234 12.9 19.3 0.00 0.51 0.00 68 868.6
20260505051433 23 226 12.9 20.9 0.00 0.51 0.00 67 868.6
20260505050432 23 227 14.5 20.9 0.00 0.51 0.00 66 868.7
20260505041429 24 220 20.9 32.2 0.00 0.51 0.51 64 868.8
20260505041407 24 210 27.4 41.8 0.00 0.51 0.51 64 868.8
20260505035429 25 214 30.6 41.8 0.03 0.51 0.51 63 868.8
20260505034430 25 225 24.1 30.6 0.03 0.51 0.51 62 868.9
20260505033428 25 206 24.1 33.8 0.00 0.51 0.51 63 868.9
20260505032423 25 218 22.5 30.6 0.03 0.51 0.51 62 868.9
20260505031424 25 206 22.5 30.6 0.03 0.51 0.51 62 868.9
20260505030424 25 219 24.1 33.8 0.03 0.51 0.51 62 868.9
20260505025425 25 214 27.4 37.0 0.00 0.51 0.48 60 869.0
20260505024424 25 216 30.6 41.8 0.00 0.51 0.48 60 869.0
20260505023902 26 216 25.7 37.0 0.03 0.51 0.48 60 869.0
20260505022857 26 224 24.1 41.8 0.03 0.48 0.48 59 869.0
20260505021423 26 226 29.0 40.2 0.03 0.48 0.48 57 869.1
20260505020905 26 222 25.7 38.6 0.03 0.48 0.48 57 869.1
20260505015424 26 221 22.5 33.8 0.03 0.48 0.48 56 869.1
20260505014424 27 217 24.1 37.0 0.03 0.48 0.48 53 869.2
20260505013425 27 218 17.7 33.8 0.05 0.48 0.48 51 869.2
20260505012905 27 222 11.3 16.1 0.05 0.48 0.46 51 869.2
20260505011418 27 222 19.3 46.7 0.10 0.48 0.46 52 869.2
20260505010419 27 195 17.7 35.4 0.13 0.48 0.46 51 869.2
20260505005415 27 198 17.7 40.2 0.15 0.48 0.46 51 869.3
20260505004853 28 211 30.6 46.7 0.18 0.48 0.46 50 869.3
20260505003848 28 195 30.6 45.1 0.20 0.43 0.43 49 869.3
20260505002413 28 197 35.4 46.7 0.20 0.41 0.41 47 869.4
20260505001857 28 201 33.8 46.7 0.20 0.38 0.36 45 869.4
20260505000413 28 192 30.6 41.8 0.20 0.33 0.33 47 869.4
20260504235414 29 209 27.4 49.9 0.23 0.33 0.30 45 869.5
20260504234410 29 197 37.0 49.9 0.23 0.30 0.28 41 869.5
20260504233411 30 208 33.8 53.1 0.15 0.23 0.20 39 869.6
20260504232854 30 215 33.8 48.3 0.15 0.20 0.18 36 869.6
20260504231411 30 216 30.6 41.8 0.13 0.18 0.15 34 869.7
20260504231328 31 218 30.6 40.2 0.10 0.15 0.13 34 869.7
20260504225411 31 218 29.0 40.2 0.05 0.10 0.10 33 869.8
20260504224409 31 216 27.4 40.2 0.03 0.08 0.05 32 869.8
20260504223409 31 212 33.8 41.8 0.03 0.08 0.05 32 869.8
20260504222409 31 209 32.2 41.8 0.00 0.05 0.05 32 869.9
20260504221410 32 229 25.7 41.8 0.00 0.05 0.03 30 870.0
20260504220410 32 234 17.7 27.4 0.00 0.05 0.03 27 870.0
20260504215410 32 243 20.9 30.6 0.00 0.05 0.03 25 870.1
20260504214856 32 226 19.3 30.6 0.00 0.05 0.03 25 870.0
20260504213407 32 253 16.1 29.0 0.00 0.05 0.03 27 870.0
20260504212407 32 234 17.7 29.0 0.00 0.05 0.03 27 870.0
20260504211407 32 237 17.7 32.2 0.00 0.05 0.03 26 870.0
20260504210407 31 222 20.9 35.4 0.03 0.05 0.03 27 869.9
20260504205407 32 245 17.7 27.4 0.03 0.08 0.03 28 870.0
20260504204407 31 252 19.3 38.6 0.03 0.08 0.03 28 870.0
20260504203405 31 245 24.1 38.6 0.03 0.08 0.03 30 869.9
20260504202406 31 235 20.9 32.2 0.00 0.05 0.03 31 869.8
20260504201405 30 231 19.3 32.2 0.00 0.08 0.03 31 869.8
20260504201324 30 229 22.5 32.2 0.00 0.10 0.00 33 869.7